Follow iAlert.com on twitter @ialertcom
Search For Active Alerts in Your Area  
  Hi Guest:  [ Sign-up / Services ] [ Login ]

Current weather by "City, St" or "zip code"  
 

Advertise Here

Current Conditions: Allentown, Lehigh Valley International Airport, PA

A Few Clouds


90.0 F

Last Updated on Aug 17 2018, 3:51 pm EDT
Humidity: 56%
Wind Speed: SW 13.8 mph
Barometer 29.95 in
Dewpoint: 72.0 F
Visibility: 10.00 mi
Precip: --
Heat Index: 97 F
Wind Chill: NA
Current conditions at:

Allentown, Lehigh Valley International Airport, PA (KABE)

Lat: 40.64 Lon: 75.447

Local Radar Image active severe weather and emergency alerts image image weather storm and storm spotter reports image weather observation monitoring service image
Local
Radar
Active
Alerts
Storm Reports Obs
Monitoring

iAlert Weather and Emergency Alert Notification Services:


ialert severe weather and emergency alerts by text message and email ialert daily weather forecast by email and text message service ialert real-time weather-observation monitoring and alert notification service ialert storm report monitoring alert notification

Observation History for Allentown, Lehigh Valley International Airport, PA


Time Wind
(mph)
Vis
(mi)
Weather Precip (in) Temperature (F) Relative
Humidity
Wind
Chill
(°F)
Heat
Index
(°F)
Pressure
Air Dwpt altimeter
(in)
sea level
(mb)
3:51 pm EDT SW 13.8 10.00 A Few Clouds -- 90.0 72.0 56% NA 97 29.95 1013.8
2:51 pm EDT SW 12.7 10.00 Mostly Cloudy -- 90.0 73.9 59% NA 99 29.98 1014.9
1:51 pm EDT SW 12.7 10.00 A Few Clouds -- 89.0 73.0 59% NA 97 30.00 1015.6
12:51 pm EDT S 5.8 10.00 Fair -- 87.0 73.0 63% NA 94 30.03 1016.4
11:51 am EDT 3.5 9.00 Mostly Cloudy -- 85.0 73.0 68% NA 92 30.05 1017.2
10:51 am EDT N 0.0 8.00 Mostly Cloudy -- 83.0 71.1 67% NA 88 30.07 1017.8
9:51 am EDT N 0.0 6.00 Partly Cloudy with Haze -- 79.0 72.0 79% NA NA 30.08 1018.3
8:51 am EDT N 0.0 4.00 Fair with Haze -- 76.0 71.1 85% NA NA 30.09 1018.6
7:51 am EDT N 0.0 3.00 Fair with Haze -- 75.0 70.0 84% NA NA 30.09 1018.5
6:51 am EDT NW 3.5 2.50 Fog/Mist -- 71.0 68.0 90% NA NA 30.09 1018.4
5:51 am EDT NW 3.5 6.00 Fog/Mist -- 71.0 68.0 90% NA NA 30.08 1018.3
4:51 am EDT N 0.0 3.00 Fog/Mist -- 72.0 69.1 91% NA NA 30.08 1018.2
3:51 am EDT N 0.0 5.00 Fog/Mist -- 73.0 70.0 90% NA NA 30.09 1018.5
2:51 am EDT N 0.0 6.00 Fog/Mist -- 73.0 70.0 90% NA NA 30.10 1018.8
1:51 am EDT NW 3.5 4.00 Fog/Mist -- 74.0 70.0 88% NA NA 30.10 1018.9
12:51 am EDT N 0.0 5.00 Fog/Mist -- 74.0 70.0 88% NA NA 30.10 1018.9
11:51 pm EDT N 0.0 6.00 Fair with Haze -- 75.0 70.0 84% NA NA 30.10 1018.8
10:51 pm EDT N 0.0 8.00 Fair -- 77.0 70.0 79% NA NA 30.10 1018.9
9:51 pm EDT W 3.5 8.00 Fair -- 78.0 70.0 76% NA NA 30.09 1018.7
8:51 pm EDT S 3.5 9.00 Fair -- 80.0 69.1 69% NA 83 30.08 1018.2
7:51 pm EDT SW 5.8 8.00 Fair -- 81.0 69.1 67% NA 84 30.07 1018.0
6:51 pm EDT W 6.9 9.00 Fair -- 84.0 69.1 61% NA 88 30.06 1017.6
5:51 pm EDT W 10.4 9.00 Fair -- 87.0 68.0 53% NA 90 30.05 1017.3
4:51 pm EDT W 9.2 9.00 Fair -- 90.0 68.0 48% NA 94 30.06 1017.4

Regional Weather Observation


Allentown Queen City Municipal Airport, PA (KXLL)

Fair
90.0 F

Quakertown Airport, PA (KUKT)

Fair
90.0 F

Reading, Reading Regional Airport, PA (KRDG)

A Few Clouds
90.0 F

Mount Pocono, Pocono Mountains Municipal Airport, PA (KMPO)

A Few Clouds
81.0 F

Pottstown, Pottstown Limerick Airport, PA (KPTW)

Light Rain
89.0 F

Doylestown, Doylestown Airport, PA (KDYL)

Fair
90.0 F

Advertise Here